Tracking 19976 objects as of 15-Nov-2019
Live streaming from Space Station
objects crossing your sky now

SL-12 R/B(AUX MOTOR)

Track SL-12 R/B(AUX MOTOR) now!
10-day predictions


NORAD ID: 19856
Int'l Code: 1989-001H
Perigee: 569.3 km
Apogee: 18,869.9 km
Inclination: 64.9 °
Period: 338.5 minutes
Semi major axis: 16090 km
RCS: 0.7416 m2 (medium)
Launch date: January 10, 1989
Source: Commonwealth of Independent States (former USSR) (CIS)
Launch site: TYURATAM MISSILE AND SPACE COMPLEX (TTMTR)

Note: This is a ROCKET BODY
aabbcc
Your satellite tracking list
Your tracking list is empty




NASA's NSSDC Master Catalog

Two Line Element Set (TLE):
1 19856U 89001H   19318.83012714  .00000041  00000-0 -72329-4 0  9998
2 19856  64.9494 135.8694 5686716 149.5067 261.7524  4.25348215478150
Source of the keplerian elements: AFSPC